Weather in Pechmen

Russia / Perm Krai     56°49′27″N   56°01′24″E
temp.,
°C
wind,
m/s
gust,
m/s
humid.,
%
clouds,
%
prec.,
mm/h
press.,
hPa
HPBL,
m
2 march, tue
tue223:00−17sw229999 0.1 101621
02:00−19ssw3610084 0.0 1015105
05:00−20ssw51210092 0.1 1012261
08:00−19s81597100 0.0 1009350
11:00−16s81595100 0.3 1006437
14:00−13ssw81494100 0.9 1002593
17:00−10ssw71493100 1.5 1000652
20:00−9s71494100 0.9 998568
3 march, wed
wed323:00−7s81494100 2.0 997574
02:00−5s61296100 1.1 994461
05:00−2wsw5897100 3.0 995444
08:00−5w3797100 0.5 995225
11:00−3w4595100 0.8 996385
14:00−2w3596100 0.4 997473
17:00−2w4691100 0.8 997597
20:00−4sw3496100 0.1 99798
4 march, thu
thu423:00−4w3797100 1.1 998292
02:00−6wnw4896100 0.7 998344
05:00−9wnw599597 1.0 1000285
08:00−15w469893 0.1 1001109
11:00−11wsw479597 0.1 1002304
14:00−7sw6893100 0.1 1002538
17:00−7sw61092100 0.3 1002519
20:00−8ssw61294100 0.2 1000540
5 march, fri
fri523:00−7ssw71594100 0.9 998722
02:00−6ssw81794100 1.3 993852
05:00−2sw101795100 3.5 9901192
08:00−1wsw91694100 1.3 9911208
11:00−4wsw9158293 1.5 9941194
14:00−4w9148432 0.0 9981044
17:00−5w7118767 0.1 1002937
20:00−7w5988100 0.1 1005660
6 march, sat
sat623:00−9wnw3895100 0.2 1008364
02:00−15wnw349797 0.1 101045
05:00−18w2210093 0.1 101120
08:00−18ssw119899 0.0 101120
11:00−13ese239099 0.0 1009235
14:00−9ene4792100 0.1 1004375
17:00−9ne61094100 2.2 1000481
20:00−10nne61194100 2.1 997529